| time (UTC) | temp F | wind direction | speed knots | gust knots | rain 1hr in | rain 24hr in | rain mn in | humidity % | barometer mb |
| 20260505224548 | 59 | 248 | 0.9 | 3.5 | 0.00 | 0.01 | 0.01 | 82 | 1017.3 |
| 20260505224211 | 60 | 259 | 0.0 | 4.3 | 0.00 | 0.01 | 0.01 | 81 | 1017.5 |
| 20260505224027 | 59 | 259 | 0.9 | 4.3 | 0.00 | 0.01 | 0.01 | 81 | 1017.2 |
| 20260505223721 | 60 | 329 | 1.7 | 4.3 | 0.00 | 0.01 | 0.01 | 81 | 1017.6 |
| 20260505223508 | 59 | 315 | 2.6 | 4.3 | 0.00 | 0.01 | 0.01 | 82 | 1017.3 |
| 20260505223222 | 60 | 271 | 1.7 | 4.3 | 0.00 | 0.01 | 0.01 | 80 | 1017.6 |
| 20260505223053 | 59 | 271 | 1.7 | 4.3 | 0.00 | 0.01 | 0.01 | 81 | 1017.3 |
| 20260505222725 | 60 | 227 | 1.7 | 4.3 | 0.00 | 0.01 | 0.01 | 81 | 1017.6 |
| 20260505222513 | 59 | 227 | 2.6 | 4.3 | 0.00 | 0.01 | 0.01 | 82 | 1017.3 |
| 20260505222247 | 60 | 221 | 2.6 | 4.3 | 0.00 | 0.01 | 0.01 | 80 | 1017.6 |
| 20260505222035 | 59 | 221 | 1.7 | 4.3 | 0.00 | 0.01 | 0.01 | 81 | 1017.3 |
| 20260505221734 | 60 | 228 | 0.9 | 2.6 | 0.00 | 0.01 | 0.01 | 82 | 1017.5 |
| 20260505221516 | 59 | 228 | 0.0 | 4.3 | 0.00 | 0.01 | 0.01 | 81 | 1017.3 |
| 20260505221215 | 59 | 228 | 0.9 | 4.3 | 0.00 | 0.01 | 0.01 | 82 | 1017.5 |
| 20260505221059 | 59 | 228 | 0.9 | 4.3 | 0.00 | 0.01 | 0.01 | 83 | 1017.3 |
| 20260505220717 | 59 | 229 | 2.6 | 4.3 | 0.00 | 0.01 | 0.01 | 83 | 1017.6 |
| 20260505220541 | 59 | 233 | 0.9 | 3.5 | 0.00 | 0.01 | 0.01 | 83 | 1017.3 |
| 20260505220245 | 59 | 234 | 1.7 | 3.5 | 0.00 | 0.01 | 0.01 | 82 | 1017.6 |
| 20260505220002 | 59 | 218 | 0.9 | 3.5 | 0.00 | 0.01 | 0.01 | 84 | 1017.2 |
| 20260505215747 | 59 | 251 | 1.7 | 2.6 | 0.00 | 0.01 | 0.01 | 84 | 1017.6 |
| 20260505215527 | 58 | 277 | 0.0 | 3.5 | 0.00 | 0.01 | 0.01 | 84 | 1017.3 |
| 20260505215213 | 59 | 277 | 0.9 | 3.5 | 0.00 | 0.01 | 0.01 | 83 | 1017.6 |
| 20260505215043 | 58 | 238 | 0.0 | 3.5 | 0.00 | 0.01 | 0.01 | 85 | 1017.3 |
| 20260505214210 | 59 | 360 | 2.6 | 3.5 | 0.00 | 0.01 | 0.01 | 83 | 1017.7 |
| 20260505214100 | 58 | 355 | 1.7 | 3.5 | 0.00 | 0.01 | 0.01 | 83 | 1017.5 |
| 20260505213712 | 59 | 318 | 0.9 | 2.6 | 0.00 | 0.01 | 0.01 | 85 | 1017.7 |
| 20260505213540 | 58 | 294 | 0.9 | 2.6 | 0.00 | 0.01 | 0.01 | 85 | 1017.5 |
| 20260505213213 | 58 | 309 | 0.9 | 2.6 | 0.00 | 0.01 | 0.01 | 85 | 1017.8 |
| 20260505213023 | 58 | 273 | 0.9 | 3.5 | 0.00 | 0.01 | 0.01 | 85 | 1017.5 |
| 20260505212722 | 58 | 273 | 0.9 | 3.5 | 0.00 | 0.01 | 0.01 | 85 | 1017.9 |
| 20260505212504 | 58 | 265 | 0.9 | 3.5 | 0.00 | 0.01 | 0.01 | 85 | 1017.6 |
| 20260505212223 | 58 | 237 | 1.7 | 4.3 | 0.00 | 0.01 | 0.01 | 85 | 1017.9 |
| 20260505212048 | 58 | 250 | 0.9 | 4.3 | 0.00 | 0.01 | 0.01 | 85 | 1017.6 |
| 20260505211724 | 58 | 254 | 2.6 | 4.3 | 0.00 | 0.01 | 0.01 | 85 | 1017.8 |
| 20260505211528 | 58 | 292 | 1.7 | 4.3 | 0.00 | 0.01 | 0.01 | 84 | 1017.6 |
| 20260505211234 | 59 | 254 | 1.7 | 5.2 | 0.00 | 0.01 | 0.01 | 85 | 1017.8 |
| 20260505211052 | 58 | 316 | 0.9 | 5.2 | 0.00 | 0.01 | 0.01 | 85 | 1017.6 |
| 20260505210714 | 58 | 277 | 1.7 | 5.2 | 0.00 | 0.01 | 0.01 | 85 | 1017.9 |
| 20260505210513 | 58 | 219 | 2.6 | 3.5 | 0.00 | 0.01 | 0.01 | 84 | 1017.6 |
| 20260505210222 | 59 | 199 | 0.9 | 2.6 | 0.00 | 0.01 | 0.01 | 84 | 1017.9 |
| 20260505210056 | 58 | 235 | 0.9 | 2.6 | 0.00 | 0.01 | 0.01 | 84 | 1017.6 |
| 20260505205724 | 59 | 202 | 0.0 | 2.6 | 0.00 | 0.01 | 0.01 | 85 | 1017.9 |
| 20260505205539 | 58 | 202 | 0.0 | 2.6 | 0.00 | 0.01 | 0.01 | 85 | 1017.6 |
| 20260505205232 | 58 | 202 | 1.7 | 2.6 | 0.00 | 0.01 | 0.01 | 85 | 1017.9 |
| 20260505205023 | 58 | 194 | 0.0 | 1.7 | 0.00 | 0.01 | 0.01 | 86 | 1017.7 |
| 20260505204714 | 58 | 194 | 0.9 | 1.7 | 0.00 | 0.01 | 0.01 | 85 | 1018.0 |
| 20260505204501 | 58 | 194 | 0.9 | 1.7 | 0.00 | 0.01 | 0.01 | 85 | 1017.7 |
| 20260505204215 | 58 | 194 | 0.9 | 1.7 | 0.00 | 0.01 | 0.01 | 85 | 1018.0 |
| 20260505204044 | 58 | 194 | 0.9 | 2.6 | 0.00 | 0.01 | 0.01 | 86 | 1017.7 |
| 20260505203716 | 58 | 194 | 0.0 | 2.6 | 0.00 | 0.01 | 0.01 | 86 | 1018.1 |
| 20260505203526 | 57 | 194 | 0.0 | 2.6 | 0.00 | 0.01 | 0.01 | 86 | 1017.7 |
| 20260505203225 | 58 | 194 | 1.7 | 2.6 | 0.00 | 0.01 | 0.01 | 86 | 1017.9 |
| 20260505203007 | 57 | 171 | 0.0 | 0.9 | 0.00 | 0.01 | 0.01 | 86 | 1017.6 |
| 20260505202726 | 58 | 235 | 0.9 | 2.6 | 0.00 | 0.01 | 0.01 | 86 | 1018.0 |
| 20260505202550 | 57 | 234 | 0.0 | 2.6 | 0.00 | 0.01 | 0.01 | 86 | 1017.7 |
| 20260505202227 | 57 | 234 | 0.0 | 2.6 | 0.00 | 0.01 | 0.01 | 87 | 1018.0 |
| 20260505202031 | 57 | 234 | 0.9 | 2.6 | 0.00 | 0.01 | 0.01 | 86 | 1017.7 |
| 20260505201736 | 58 | 236 | 1.7 | 2.6 | 0.00 | 0.01 | 0.01 | 87 | 1017.9 |
| 20260505201515 | 57 | 246 | 0.9 | 2.6 | 0.00 | 0.01 | 0.01 | 87 | 1017.6 |
| 20260505201217 | 58 | 248 | 0.9 | 1.7 | 0.00 | 0.01 | 0.01 | 86 | 1017.9 |
| 20260505201056 | 57 | 248 | 0.0 | 1.7 | 0.00 | 0.01 | 0.01 | 87 | 1017.6 |
| 20260505200718 | 58 | 248 | 0.9 | 1.7 | 0.00 | 0.01 | 0.01 | 87 | 1018.0 |
| 20260505200538 | 57 | 248 | 0.0 | 0.9 | 0.00 | 0.01 | 0.01 | 87 | 1017.7 |
| 20260505200220 | 57 | 248 | 0.0 | 0.9 | 0.00 | 0.01 | 0.01 | 87 | 1018.0 |
| 20260505200019 | 57 | 248 | 0.0 | 0.9 | 0.00 | 0.01 | 0.01 | 87 | 1017.7 |
| 20260505195748 | 57 | 248 | 0.0 | 0.9 | 0.00 | 0.01 | 0.01 | 87 | 1018.0 |
| 20260505195544 | 56 | 248 | 0.0 | 1.7 | 0.00 | 0.01 | 0.01 | 87 | 1017.7 |
| 20260505195235 | 57 | 248 | 0.0 | 1.7 | 0.00 | 0.01 | 0.01 | 87 | 1018.1 |
| 20260505195022 | 56 | 248 | 0.0 | 2.6 | 0.00 | 0.01 | 0.01 | 87 | 1017.7 |
| 20260505194738 | 57 | 248 | 0.9 | 2.6 | 0.00 | 0.01 | 0.01 | 87 | 1018.0 |
| 20260505194547 | 56 | 248 | 0.9 | 2.6 | 0.00 | 0.01 | 0.01 | 87 | 1017.7 |
| 20260505194225 | 57 | 231 | 1.7 | 2.6 | 0.00 | 0.01 | 0.01 | 88 | 1018.0 |
| 20260505194008 | 57 | 257 | 0.0 | 2.6 | 0.00 | 0.01 | 0.01 | 88 | 1017.7 |
| 20260505193726 | 57 | 257 | 0.9 | 2.6 | 0.00 | 0.01 | 0.01 | 87 | 1018.1 |
| 20260505193549 | 57 | 257 | 0.9 | 2.6 | 0.00 | 0.01 | 0.01 | 88 | 1017.7 |
| 20260505193227 | 57 | 298 | 0.9 | 3.5 | 0.00 | 0.01 | 0.01 | 88 | 1018.0 |
| 20260505193031 | 57 | 327 | 0.9 | 3.5 | 0.00 | 0.01 | 0.01 | 88 | 1017.7 |
| 20260505192735 | 57 | 309 | 1.7 | 3.5 | 0.00 | 0.01 | 0.01 | 88 | 1018.1 |
| 20260505192519 | 57 | 277 | 0.9 | 3.5 | 0.00 | 0.01 | 0.01 | 90 | 1017.7 |
| 20260505192217 | 57 | 304 | 1.7 | 4.3 | 0.00 | 0.01 | 0.01 | 90 | 1018.1 |
| 20260505192056 | 56 | 270 | 0.9 | 5.2 | 0.00 | 0.01 | 0.01 | 89 | 1017.7 |
| 20260505191719 | 57 | 344 | 1.7 | 5.2 | 0.00 | 0.01 | 0.01 | 90 | 1018.0 |
| 20260505191541 | 56 | 346 | 2.6 | 5.2 | 0.00 | 0.01 | 0.01 | 89 | 1017.7 |
| 20260505191220 | 57 | 344 | 2.6 | 5.2 | 0.00 | 0.01 | 0.01 | 90 | 1018.0 |
| 20260505191019 | 56 | 355 | 0.9 | 3.5 | 0.00 | 0.01 | 0.01 | 90 | 1017.8 |
| 20260505190728 | 56 | 355 | 2.6 | 4.3 | 0.00 | 0.01 | 0.01 | 89 | 1018.1 |
| 20260505190603 | 56 | 341 | 1.7 | 4.3 | 0.00 | 0.01 | 0.01 | 89 | 1017.8 |
| 20260505190210 | 57 | 279 | 1.7 | 4.3 | 0.00 | 0.01 | 0.01 | 89 | 1018.1 |
| 20260505190044 | 56 | 300 | 0.9 | 4.3 | 0.00 | 0.01 | 0.01 | 89 | 1017.8 |
| 20260505185710 | 57 | 284 | 0.9 | 2.6 | 0.00 | 0.01 | 0.01 | 89 | 1018.1 |
| 20260505185524 | 56 | 219 | 0.9 | 3.5 | 0.00 | 0.01 | 0.01 | 89 | 1017.7 |
| 20260505185239 | 57 | 218 | 0.9 | 3.5 | 0.00 | 0.01 | 0.01 | 89 | 1018.1 |
| 20260505185047 | 56 | 205 | 0.0 | 3.5 | 0.00 | 0.01 | 0.01 | 89 | 1017.7 |
| 20260505184719 | 57 | 197 | 2.6 | 3.5 | 0.00 | 0.01 | 0.01 | 89 | 1018.1 |
| 20260505184528 | 56 | 212 | 1.7 | 3.5 | 0.00 | 0.01 | 0.01 | 90 | 1017.8 |
| 20260505184227 | 56 | 221 | 1.7 | 3.5 | 0.00 | 0.01 | 0.01 | 89 | 1018.1 |
| 20260505184009 | 56 | 250 | 0.9 | 2.6 | 0.00 | 0.01 | 0.01 | 89 | 1017.7 |
| 20260505183729 | 56 | 249 | 0.9 | 2.6 | 0.00 | 0.01 | 0.01 | 89 | 1018.1 |
| 20260505183552 | 56 | 249 | 1.7 | 3.5 | 0.00 | 0.01 | 0.01 | 90 | 1017.8 |
| 20260505183231 | 56 | 234 | 1.7 | 4.3 | 0.00 | 0.01 | 0.01 | 90 | 1018.1 |
| 20260505183015 | 55 | 236 | 0.0 | 4.3 | 0.00 | 0.01 | 0.01 | 89 | 1017.7 |
| 20260505182719 | 56 | 235 | 2.6 | 4.3 | 0.00 | 0.01 | 0.01 | 90 | 1018.0 |
| 20260505182557 | 55 | 238 | 1.7 | 4.3 | 0.00 | 0.01 | 0.01 | 90 | 1017.7 |
| 20260505182220 | 56 | 278 | 0.9 | 4.3 | 0.00 | 0.01 | 0.01 | 90 | 1018.0 |
| 20260505182043 | 55 | 276 | 1.7 | 4.3 | 0.00 | 0.01 | 0.01 | 90 | 1017.7 |
| 20260505181722 | 56 | 234 | 2.6 | 4.3 | 0.00 | 0.01 | 0.01 | 91 | 1018.0 |
| 20260505181521 | 55 | 203 | 1.7 | 4.3 | 0.00 | 0.01 | 0.01 | 91 | 1017.6 |
| 20260505181231 | 56 | 196 | 2.6 | 4.3 | 0.00 | 0.01 | 0.01 | 92 | 1018.0 |
| 20260505181002 | 55 | 212 | 2.6 | 4.3 | 0.00 | 0.01 | 0.01 | 92 | 1017.7 |
| 20260505180712 | 55 | 241 | 1.7 | 4.3 | 0.00 | 0.01 | 0.01 | 92 | 1018.0 |
| 20260505180545 | 55 | 243 | 1.7 | 4.3 | 0.00 | 0.01 | 0.01 | 92 | 1017.6 |
| 20260505180240 | 55 | 215 | 2.6 | 4.3 | 0.00 | 0.01 | 0.01 | 92 | 1017.9 |
| 20260505180013 | 55 | 232 | 2.6 | 4.3 | 0.00 | 0.01 | 0.01 | 92 | 1017.7 |
| 20260505175742 | 55 | 219 | 2.6 | 4.3 | 0.00 | 0.01 | 0.01 | 93 | 1017.9 |
| 20260505175529 | 55 | 220 | 1.7 | 4.3 | 0.00 | 0.01 | 0.01 | 92 | 1017.6 |
| 20260505175229 | 55 | 235 | 2.6 | 4.3 | 0.00 | 0.01 | 0.01 | 93 | 1017.9 |
| 20260505175011 | 55 | 267 | 0.9 | 3.5 | 0.00 | 0.01 | 0.01 | 93 | 1017.6 |
| 20260505174710 | 55 | 213 | 1.7 | 3.5 | 0.00 | 0.01 | 0.01 | 93 | 1017.9 |
| 20260505174538 | 54 | 150 | 0.0 | 1.7 | 0.00 | 0.01 | 0.01 | 93 | 1017.5 |
| 20260505174211 | 55 | 150 | 0.9 | 2.6 | 0.00 | 0.01 | 0.01 | 94 | 1017.9 |
| 20260505174015 | 54 | 117 | 0.0 | 2.6 | 0.00 | 0.01 | 0.01 | 94 | 1017.5 |
| 20260505173719 | 54 | 146 | 0.9 | 2.6 | 0.00 | 0.01 | 0.01 | 94 | 1017.9 |
| 20260505173559 | 54 | 146 | 0.9 | 2.6 | 0.00 | 0.01 | 0.01 | 94 | 1017.5 |
| 20260505173221 | 54 | 206 | 0.9 | 2.6 | 0.00 | 0.01 | 0.01 | 95 | 1017.8 |
| 20260505173044 | 54 | 206 | 0.0 | 3.5 | 0.00 | 0.01 | 0.01 | 95 | 1017.5 |
| 20260505172722 | 54 | 207 | 0.9 | 3.5 | 0.00 | 0.01 | 0.01 | 95 | 1017.7 |
| 20260505172521 | 53 | 192 | 0.9 | 3.5 | 0.00 | 0.01 | 0.01 | 95 | 1017.4 |
| 20260505172231 | 54 | 209 | 2.6 | 3.5 | 0.00 | 0.01 | 0.01 | 95 | 1017.7 |
| 20260505172044 | 53 | 230 | 2.6 | 3.5 | 0.00 | 0.01 | 0.01 | 95 | 1017.4 |
| 20260505171711 | 54 | 225 | 1.7 | 2.6 | 0.00 | 0.01 | 0.01 | 96 | 1017.6 |
| 20260505171530 | 53 | 167 | 0.9 | 2.6 | 0.00 | 0.01 | 0.01 | 96 | 1017.3 |
| 20260505171219 | 54 | 194 | 0.9 | 1.7 | 0.00 | 0.01 | 0.01 | 96 | 1017.6 |
| 20260505171009 | 53 | 194 | 0.0 | 1.7 | 0.00 | 0.01 | 0.01 | 96 | 1017.3 |
| 20260505170719 | 54 | 194 | 1.7 | 1.7 | 0.00 | 0.01 | 0.01 | 96 | 1017.6 |
| 20260505170529 | 53 | 195 | 0.9 | 2.6 | 0.00 | 0.01 | 0.01 | 96 | 1017.3 |
| 20260505170227 | 54 | 195 | 0.9 | 3.5 | 0.00 | 0.01 | 0.01 | 96 | 1017.6 |
| 20260505170008 | 53 | 195 | 0.0 | 3.5 | 0.00 | 0.01 | 0.01 | 96 | 1017.3 |
| 20260505165728 | 53 | 195 | 1.7 | 3.5 | 0.00 | 0.01 | 0.01 | 96 | 1017.6 |
| 20260505165552 | 53 | 195 | 1.7 | 3.5 | 0.00 | 0.01 | 0.01 | 96 | 1017.3 |
| 20260505165210 | 53 | 171 | 1.7 | 3.5 | 0.00 | 0.01 | 0.01 | 97 | 1017.5 |
| 20260505165034 | 53 | 208 | 0.9 | 1.7 | 0.00 | 0.01 | 0.01 | 97 | 1017.3 |
| 20260505164717 | 53 | 208 | 0.9 | 2.6 | 0.00 | 0.01 | 0.01 | 97 | 1017.6 |
| 20260505164556 | 53 | 231 | 0.9 | 2.6 | 0.00 | 0.01 | 0.01 | 97 | 1017.2 |
| 20260505164219 | 53 | 231 | 0.9 | 3.5 | 0.00 | 0.01 | 0.01 | 97 | 1017.5 |
| 20260505164038 | 53 | 231 | 0.9 | 3.5 | 0.00 | 0.01 | 0.01 | 97 | 1017.2 |
| 20260505163720 | 53 | 231 | 1.7 | 3.5 | 0.00 | 0.01 | 0.01 | 97 | 1017.5 |
| 20260505163522 | 52 | 232 | 1.7 | 4.3 | 0.00 | 0.01 | 0.01 | 97 | 1017.1 |
| 20260505163229 | 53 | 219 | 0.9 | 4.3 | 0.00 | 0.01 | 0.01 | 97 | 1017.5 |
| 20260505163102 | 52 | 219 | 1.7 | 4.3 | 0.00 | 0.01 | 0.01 | 97 | 1017.1 |
| 20260505162710 | 53 | 238 | 1.7 | 3.5 | 0.00 | 0.01 | 0.01 | 97 | 1017.3 |
| 20260505162544 | 52 | 240 | 0.9 | 3.5 | 0.00 | 0.01 | 0.01 | 97 | 1017.1 |
| 20260505162211 | 53 | 178 | 0.9 | 3.5 | 0.00 | 0.01 | 0.01 | 97 | 1017.4 |
| 20260505162025 | 52 | 178 | 0.9 | 3.5 | 0.00 | 0.01 | 0.01 | 97 | 1017.1 |
| 20260505161720 | 52 | 184 | 1.7 | 3.5 | 0.00 | 0.01 | 0.01 | 97 | 1017.4 |
| 20260505161507 | 52 | 171 | 2.6 | 3.5 | 0.00 | 0.01 | 0.01 | 97 | 1016.9 |
| 20260505161221 | 52 | 168 | 2.6 | 4.3 | 0.00 | 0.01 | 0.01 | 97 | 1017.4 |
| 20260505161030 | 52 | 186 | 1.7 | 4.3 | 0.00 | 0.01 | 0.01 | 97 | 1017.0 |
| 20260505160729 | 52 | 175 | 1.7 | 4.3 | 0.00 | 0.01 | 0.01 | 97 | 1017.3 |
| 20260505160511 | 52 | 213 | 1.7 | 5.2 | 0.00 | 0.01 | 0.01 | 97 | 1017.0 |
| 20260505160251 | 52 | 184 | 3.5 | 5.2 | 0.00 | 0.01 | 0.01 | 97 | 1017.4 |
| 20260505153236 | 52 | 178 | 1.7 | 4.3 | 0.00 | 0.01 | 0.01 | 97 | 1017.3 |
| 20260505153023 | 52 | 202 | 2.6 | 4.3 | 0.00 | 0.01 | 0.01 | 97 | 1016.9 |
| 20260505152717 | 52 | 190 | 2.6 | 3.5 | 0.00 | 0.01 | 0.01 | 97 | 1017.3 |
| 20260505152506 | 52 | 196 | 1.7 | 3.5 | 0.00 | 0.01 | 0.01 | 97 | 1016.9 |
| 20260505152218 | 52 | 194 | 1.7 | 3.5 | 0.00 | 0.01 | 0.01 | 97 | 1017.2 |
| 20260505152050 | 52 | 184 | 1.7 | 3.5 | 0.00 | 0.01 | 0.01 | 97 | 1016.9 |
| 20260505151726 | 52 | 192 | 1.7 | 2.6 | 0.00 | 0.01 | 0.01 | 97 | 1017.2 |
| 20260505151513 | 52 | 194 | 0.9 | 2.6 | 0.00 | 0.01 | 0.01 | 97 | 1016.8 |
| 20260505151227 | 52 | 202 | 0.9 | 2.6 | 0.00 | 0.01 | 0.01 | 97 | 1017.2 |
| 20260505151051 | 52 | 180 | 0.9 | 2.6 | 0.00 | 0.01 | 0.01 | 97 | 1016.9 |
| 20260505150716 | 52 | 180 | 1.7 | 2.6 | 0.00 | 0.01 | 0.01 | 97 | 1017.2 |
| 20260505150539 | 52 | 182 | 1.7 | 2.6 | 0.00 | 0.01 | 0.01 | 97 | 1016.8 |
| 20260505140601 | 51 | 164 | 0.0 | 1.7 | 0.01 | 0.01 | 0.01 | 97 | 1016.2 |
| 20260505140228 | 52 | 164 | 0.0 | 1.7 | 0.01 | 0.01 | 0.01 | 97 | 1016.5 |
| 20260505130220 | 52 | 189 | 0.0 | 1.7 | 0.00 | 0.00 | 0.00 | 96 | 1016.2 |
| 20260505130157 | 51 | 189 | 0.0 | 1.7 | 0.00 | 0.00 | 0.00 | 96 | 1015.9 |
| 20260505124713 | 52 | 189 | 0.9 | 1.7 | 0.00 | 0.00 | 0.00 | 96 | 1016.2 |
| 20260505124540 | 51 | 189 | 0.9 | 1.7 | 0.00 | 0.00 | 0.00 | 96 | 1015.8 |
| 20260505124225 | 52 | 180 | 0.9 | 1.7 | 0.00 | 0.00 | 0.00 | 96 | 1016.2 |
| 20260505124032 | 51 | 180 | 0.9 | 1.7 | 0.00 | 0.00 | 0.00 | 96 | 1015.8 |
| 20260505123733 | 52 | 180 | 0.9 | 2.6 | 0.00 | 0.00 | 0.00 | 96 | 1016.2 |
| 20260505123553 | 51 | 180 | 0.9 | 2.6 | 0.00 | 0.00 | 0.00 | 96 | 1015.8 |
| 20260505123213 | 52 | 180 | 0.9 | 2.6 | 0.00 | 0.00 | 0.00 | 96 | 1016.3 |
| 20260505123035 | 51 | 180 | 0.9 | 2.6 | 0.00 | 0.00 | 0.00 | 96 | 1015.8 |
| 20260505122745 | 52 | 180 | 0.9 | 1.7 | 0.00 | 0.00 | 0.00 | 96 | 1016.3 |
| 20260505122504 | 51 | 180 | 0.0 | 1.7 | 0.00 | 0.00 | 0.00 | 96 | 1015.8 |
| 20260505122225 | 52 | 180 | 0.9 | 1.7 | 0.00 | 0.00 | 0.00 | 96 | 1016.2 |
| 20260505122022 | 51 | 180 | 0.9 | 1.7 | 0.00 | 0.00 | 0.00 | 96 | 1015.9 |
| 20260505121716 | 52 | 180 | 0.9 | 1.7 | 0.00 | 0.00 | 0.00 | 96 | 1016.2 |
| 20260505121615 | 51 | 180 | 0.0 | 1.7 | 0.00 | 0.00 | 0.00 | 96 | 1015.8 |
| 20260505121230 | 52 | 180 | 0.9 | 1.7 | 0.00 | 0.00 | 0.00 | 96 | 1016.2 |
| 20260505121046 | 51 | 180 | 0.0 | 1.7 | 0.00 | 0.00 | 0.00 | 96 | 1015.8 |
| 20260505120712 | 52 | 180 | 0.0 | 1.7 | 0.00 | 0.00 | 0.00 | 95 | 1016.2 |
| 20260505120531 | 51 | 180 | 0.0 | 1.7 | 0.00 | 0.00 | 0.00 | 95 | 1015.8 |
| 20260505120221 | 52 | 180 | 0.0 | 1.7 | 0.00 | 0.00 | 0.00 | 95 | 1016.2 |
| 20260505120008 | 51 | 180 | 0.0 | 1.7 | 0.00 | 0.00 | 0.00 | 95 | 1015.8 |
| 20260505115716 | 52 | 180 | 0.9 | 1.7 | 0.00 | 0.00 | 0.00 | 95 | 1016.1 |
| 20260505115543 | 51 | 180 | 0.9 | 1.7 | 0.00 | 0.00 | 0.00 | 95 | 1015.7 |
| 20260505115221 | 52 | 180 | 0.9 | 1.7 | 0.00 | 0.00 | 0.00 | 95 | 1016.1 |
| 20260505115057 | 51 | 180 | 0.0 | 1.7 | 0.00 | 0.00 | 0.00 | 95 | 1015.7 |
| 20260505114714 | 52 | 180 | 0.9 | 1.7 | 0.00 | 0.00 | 0.00 | 95 | 1016.1 |
| 20260505114536 | 52 | 180 | 0.9 | 1.7 | 0.00 | 0.00 | 0.00 | 95 | 1015.7 |
| 20260505114215 | 52 | 180 | 0.9 | 1.7 | 0.00 | 0.00 | 0.00 | 95 | 1016.0 |
| 20260505114020 | 52 | 180 | 0.9 | 1.7 | 0.00 | 0.00 | 0.00 | 95 | 1015.6 |
| 20260505113720 | 52 | 180 | 0.9 | 1.7 | 0.00 | 0.00 | 0.00 | 95 | 1016.0 |
| 20260505113659 | 52 | 180 | 0.0 | 1.7 | 0.00 | 0.00 | 0.00 | 95 | 1015.6 |
| 20260505113217 | 52 | 180 | 0.9 | 2.6 | 0.00 | 0.00 | 0.00 | 94 | 1016.1 |
| 20260505113054 | 52 | 180 | 0.0 | 2.6 | 0.00 | 0.00 | 0.00 | 94 | 1015.7 |
| 20260505112744 | 52 | 180 | 1.7 | 2.6 | 0.00 | 0.00 | 0.00 | 94 | 1016.1 |
| 20260505112509 | 52 | 180 | 0.9 | 2.6 | 0.00 | 0.00 | 0.00 | 94 | 1015.7 |
| 20260505112220 | 52 | 180 | 0.9 | 1.7 | 0.00 | 0.00 | 0.00 | 94 | 1016.0 |
| 20260505112051 | 52 | 180 | 0.9 | 1.7 | 0.00 | 0.00 | 0.00 | 94 | 1015.6 |
| 20260505111720 | 52 | 180 | 0.9 | 0.9 | 0.00 | 0.00 | 0.00 | 94 | 1016.1 |
| 20260505111526 | 52 | 180 | 0.0 | 0.9 | 0.00 | 0.00 | 0.00 | 94 | 1015.7 |
| 20260505111218 | 52 | 180 | 0.0 | 1.7 | 0.00 | 0.00 | 0.00 | 94 | 1016.1 |
| 20260505111105 | 52 | 180 | 0.0 | 1.7 | 0.00 | 0.00 | 0.00 | 94 | 1015.6 |
| 20260505110710 | 52 | 180 | 0.0 | 1.7 | 0.00 | 0.00 | 0.00 | 94 | 1016.0 |
| 20260505110538 | 52 | 180 | 0.0 | 1.7 | 0.00 | 0.00 | 0.00 | 94 | 1015.6 |
| 20260505110238 | 52 | 180 | 0.9 | 1.7 | 0.00 | 0.00 | 0.00 | 94 | 1016.0 |
| 20260505102221 | 52 | 180 | 0.0 | 0.9 | 0.00 | 0.00 | 0.00 | 94 | 1015.6 |
| 20260505102025 | 51 | 180 | 0.0 | 0.9 | 0.00 | 0.00 | 0.00 | 94 | 1015.1 |
| 20260505101800 | 52 | 180 | 0.0 | 1.7 | 0.00 | 0.00 | 0.00 | 94 | 1015.5 |
| 20260505101625 | 51 | 180 | 0.0 | 1.7 | 0.00 | 0.00 | 0.00 | 94 | 1015.1 |
| 20260505101225 | 52 | 180 | 0.9 | 1.7 | 0.00 | 0.00 | 0.00 | 94 | 1015.5 |
| 20260505101010 | 51 | 180 | 0.0 | 1.7 | 0.00 | 0.00 | 0.00 | 94 | 1015.1 |
| 20260505100714 | 52 | 180 | 0.0 | 0.9 | 0.00 | 0.00 | 0.00 | 94 | 1015.6 |
| 20260505100553 | 51 | 180 | 0.0 | 0.9 | 0.00 | 0.00 | 0.00 | 94 | 1015.2 |
| 20260505100216 | 52 | 180 | 0.0 | 1.7 | 0.00 | 0.00 | 0.00 | 94 | 1015.5 |
| 20260505100055 | 51 | 180 | 0.0 | 1.7 | 0.00 | 0.00 | 0.00 | 94 | 1015.1 |
| 20260505095718 | 52 | 180 | 0.0 | 1.7 | 0.00 | 0.00 | 0.00 | 94 | 1015.6 |
| 20260505095517 | 51 | 180 | 0.0 | 2.6 | 0.00 | 0.00 | 0.00 | 94 | 1015.1 |
| 20260505095226 | 52 | 180 | 0.9 | 2.6 | 0.00 | 0.00 | 0.00 | 94 | 1015.6 |
| 20260505095100 | 51 | 180 | 0.0 | 2.6 | 0.00 | 0.00 | 0.00 | 94 | 1015.2 |
| 20260505094727 | 52 | 180 | 1.7 | 2.6 | 0.00 | 0.00 | 0.00 | 94 | 1015.6 |
| 20260505094541 | 51 | 180 | 0.9 | 2.6 | 0.00 | 0.00 | 0.00 | 94 | 1015.1 |
| 20260505094236 | 52 | 180 | 1.7 | 2.6 | 0.00 | 0.00 | 0.00 | 94 | 1015.5 |
| 20260505094022 | 51 | 180 | 0.9 | 2.6 | 0.00 | 0.00 | 0.00 | 94 | 1015.1 |
| 20260505093717 | 52 | 180 | 1.7 | 2.6 | 0.00 | 0.00 | 0.00 | 94 | 1015.4 |
| 20260505093504 | 51 | 176 | 0.9 | 1.7 | 0.00 | 0.00 | 0.00 | 94 | 1015.0 |
| 20260505093218 | 52 | 176 | 0.9 | 1.7 | 0.00 | 0.00 | 0.00 | 94 | 1015.5 |
| 20260505093059 | 51 | 176 | 0.0 | 2.6 | 0.00 | 0.00 | 0.00 | 94 | 1015.0 |
| 20260505092720 | 52 | 176 | 0.9 | 2.6 | 0.00 | 0.00 | 0.00 | 94 | 1015.4 |
| 20260505092529 | 51 | 176 | 0.0 | 2.6 | 0.00 | 0.00 | 0.00 | 94 | 1015.0 |
| 20260505092229 | 52 | 176 | 0.9 | 2.6 | 0.00 | 0.00 | 0.00 | 94 | 1015.3 |
| 20260505092008 | 51 | 176 | 0.0 | 2.6 | 0.00 | 0.00 | 0.00 | 94 | 1014.9 |
| 20260505091747 | 52 | 176 | 1.7 | 2.6 | 0.00 | 0.00 | 0.00 | 94 | 1015.3 |
| 20260505091530 | 51 | 176 | 0.9 | 1.7 | 0.00 | 0.00 | 0.00 | 94 | 1014.9 |
| 20260505091235 | 52 | 176 | 0.9 | 2.6 | 0.00 | 0.00 | 0.00 | 94 | 1015.2 |
| 20260505091053 | 51 | 176 | 0.9 | 2.6 | 0.00 | 0.00 | 0.00 | 94 | 1014.7 |
| 20260505090715 | 52 | 176 | 1.7 | 0.0 | 0.00 | 0.00 | 0.00 | 94 | 1014.9 |
| 20260505090531 | 51 | 176 | 0.9 | 2.6 | 0.00 | 0.00 | 0.00 | 94 | 1014.8 |
| 20260505090213 | 52 | 178 | 0.9 | 3.5 | 0.00 | 0.00 | 0.00 | 94 | 1015.1 |
| 20260505090012 | 51 | 178 | 0.9 | 3.5 | 0.00 | 0.00 | 0.00 | 94 | 1014.8 |
| 20260505085739 | 52 | 178 | 2.6 | 3.5 | 0.00 | 0.00 | 0.00 | 94 | 1015.2 |
| 20260505085541 | 51 | 188 | 1.7 | 4.3 | 0.00 | 0.00 | 0.00 | 94 | 1014.7 |
| 20260505085224 | 52 | 182 | 1.7 | 4.3 | 0.00 | 0.00 | 0.00 | 94 | 1015.2 |
| 20260505085022 | 51 | 186 | 1.7 | 4.3 | 0.00 | 0.00 | 0.00 | 94 | 1014.8 |
| 20260505084716 | 52 | 177 | 2.6 | 4.3 | 0.00 | 0.00 | 0.00 | 94 | 1015.2 |
| 20260505084505 | 51 | 188 | 1.7 | 3.5 | 0.00 | 0.00 | 0.00 | 94 | 1014.8 |
| 20260505084218 | 52 | 176 | 2.6 | 3.5 | 0.00 | 0.00 | 0.00 | 94 | 1015.1 |
| 20260505084047 | 51 | 182 | 2.6 | 3.5 | 0.00 | 0.00 | 0.00 | 94 | 1014.7 |
| 20260505083719 | 52 | 165 | 1.7 | 3.5 | 0.00 | 0.00 | 0.00 | 94 | 1015.2 |
| 20260505083528 | 51 | 172 | 1.7 | 3.5 | 0.00 | 0.00 | 0.00 | 94 | 1014.7 |
| 20260505083228 | 51 | 174 | 2.6 | 3.5 | 0.00 | 0.00 | 0.00 | 94 | 1015.2 |
| 20260505083012 | 51 | 177 | 1.7 | 4.3 | 0.00 | 0.00 | 0.00 | 94 | 1014.6 |
| 20260505082709 | 51 | 179 | 2.6 | 4.3 | 0.00 | 0.00 | 0.00 | 94 | 1015.1 |
| 20260505082553 | 51 | 175 | 1.7 | 4.3 | 0.00 | 0.00 | 0.00 | 94 | 1014.6 |
| 20260505082211 | 51 | 190 | 1.7 | 4.3 | 0.00 | 0.00 | 0.00 | 94 | 1015.1 |
| 20260505082035 | 51 | 186 | 2.6 | 4.3 | 0.00 | 0.00 | 0.00 | 94 | 1014.6 |
| 20260505081712 | 51 | 184 | 1.7 | 3.5 | 0.00 | 0.00 | 0.00 | 94 | 1014.9 |
| 20260505081517 | 51 | 173 | 1.7 | 3.5 | 0.00 | 0.00 | 0.00 | 94 | 1014.5 |
| 20260505081221 | 51 | 178 | 1.7 | 3.5 | 0.00 | 0.00 | 0.00 | 94 | 1014.9 |
| 20260505081100 | 51 | 175 | 1.7 | 4.3 | 0.00 | 0.00 | 0.00 | 94 | 1014.5 |
| 20260505080722 | 51 | 160 | 2.6 | 4.3 | 0.00 | 0.00 | 0.00 | 94 | 1015.0 |
| 20260505080547 | 51 | 176 | 1.7 | 4.3 | 0.00 | 0.00 | 0.00 | 94 | 1014.5 |
| 20260505080230 | 51 | 173 | 1.7 | 4.3 | 0.00 | 0.00 | 0.00 | 94 | 1015.0 |
| 20260505080002 | 51 | 182 | 1.7 | 4.3 | 0.00 | 0.00 | 0.00 | 94 | 1014.5 |
| 20260505075711 | 51 | 178 | 1.7 | 4.3 | 0.00 | 0.00 | 0.00 | 93 | 1014.9 |
| 20260505075545 | 50 | 177 | 1.7 | 4.3 | 0.00 | 0.00 | 0.00 | 93 | 1014.4 |
| 20260505075219 | 51 | 164 | 0.9 | 3.5 | 0.00 | 0.00 | 0.00 | 93 | 1014.9 |
| 20260505075010 | 50 | 164 | 1.7 | 3.5 | 0.00 | 0.00 | 0.00 | 92 | 1014.5 |
| 20260505074720 | 51 | 211 | 0.9 | 1.7 | 0.00 | 0.00 | 0.00 | 92 | 1014.8 |
| 20260505074549 | 50 | 211 | 0.0 | 1.7 | 0.00 | 0.00 | 0.00 | 92 | 1014.4 |
| 20260505074222 | 51 | 211 | 0.9 | 1.7 | 0.00 | 0.00 | 0.00 | 92 | 1014.7 |
| 20260505074032 | 50 | 211 | 0.9 | 1.7 | 0.00 | 0.00 | 0.00 | 92 | 1014.2 |
| 20260505073729 | 51 | 229 | 0.0 | 1.7 | 0.00 | 0.00 | 0.00 | 92 | 1014.6 |
| 20260505073511 | 51 | 229 | 0.0 | 1.7 | 0.00 | 0.00 | 0.00 | 92 | 1014.1 |
| 20260505073210 | 51 | 229 | 0.9 | 1.7 | 0.00 | 0.00 | 0.00 | 91 | 1014.5 |
| 20260505073058 | 51 | 229 | 0.0 | 1.7 | 0.00 | 0.00 | 0.00 | 91 | 1014.0 |
| 20260505072711 | 51 | 229 | 0.9 | 1.7 | 0.00 | 0.00 | 0.00 | 91 | 1014.4 |
| 20260505072535 | 51 | 229 | 0.0 | 2.6 | 0.00 | 0.00 | 0.00 | 91 | 1013.9 |
| 20260505072213 | 52 | 245 | 0.0 | 2.6 | 0.00 | 0.00 | 0.00 | 91 | 1014.3 |
| 20260505072017 | 51 | 245 | 0.0 | 2.6 | 0.00 | 0.00 | 0.00 | 91 | 1013.8 |
| 20260505071721 | 52 | 245 | 0.9 | 2.6 | 0.00 | 0.00 | 0.00 | 90 | 1014.3 |
| 20260505071601 | 51 | 235 | 0.0 | 2.6 | 0.00 | 0.00 | 0.00 | 90 | 1013.7 |
| 20260505071224 | 52 | 231 | 0.9 | 2.6 | 0.00 | 0.00 | 0.00 | 90 | 1014.2 |
| 20260505071039 | 51 | 232 | 0.0 | 0.9 | 0.00 | 0.00 | 0.00 | 89 | 1013.7 |
| 20260505070722 | 52 | 232 | 0.0 | 0.9 | 0.00 | 0.00 | 0.00 | 89 | 1014.2 |
| 20260505070520 | 52 | 286 | 0.0 | 0.9 | 0.00 | 0.00 | 0.00 | 89 | 1013.6 |
| 20260505070230 | 52 | 286 | 0.9 | 1.7 | 0.00 | 0.00 | 0.00 | 89 | 1014.2 |
| 20260505070002 | 52 | 286 | 0.0 | 1.7 | 0.00 | 0.00 | 0.00 | 89 | 1013.6 |
| 20260505065712 | 53 | 286 | 0.9 | 1.7 | 0.00 | 0.00 | 0.00 | 88 | 1014.1 |
| 20260505065545 | 52 | 286 | 0.0 | 1.7 | 0.00 | 0.00 | 0.00 | 89 | 1013.5 |
| 20260505065213 | 53 | 286 | 0.9 | 1.7 | 0.00 | 0.00 | 0.00 | 88 | 1014.0 |
| 20260505065026 | 53 | 286 | 0.0 | 0.9 | 0.00 | 0.00 | 0.00 | 88 | 1013.5 |
| 20260505064722 | 53 | 286 | 0.0 | 0.9 | 0.00 | 0.00 | 0.00 | 88 | 1014.0 |
| 20260505064513 | 53 | 286 | 0.0 | 1.7 | 0.00 | 0.00 | 0.00 | 88 | 1013.4 |
| 20260505064223 | 54 | 286 | 0.0 | 5.2 | 0.00 | 0.00 | 0.00 | 88 | 1014.0 |
| 20260505064051 | 53 | 286 | 0.0 | 5.2 | 0.00 | 0.00 | 0.00 | 88 | 1013.3 |
| 20260505063725 | 54 | 286 | 0.0 | 5.2 | 0.00 | 0.00 | 0.00 | 88 | 1013.8 |
| 20260505063533 | 53 | 286 | 0.9 | 5.2 | 0.00 | 0.00 | 0.00 | 88 | 1013.3 |
| 20260505063233 | 54 | 268 | 1.7 | 5.2 | 0.00 | 0.00 | 0.00 | 87 | 1013.7 |
| 20260505063014 | 54 | 226 | 0.9 | 3.5 | 0.00 | 0.00 | 0.00 | 87 | 1013.1 |
| 20260505062714 | 54 | 244 | 0.9 | 2.6 | 0.00 | 0.00 | 0.00 | 86 | 1013.7 |
| 20260505062557 | 54 | 185 | 0.0 | 1.7 | 0.00 | 0.00 | 0.00 | 86 | 1013.1 |
| 20260505062216 | 55 | 185 | 0.9 | 2.6 | 0.00 | 0.00 | 0.00 | 86 | 1013.6 |
| 20260505062038 | 54 | 185 | 0.0 | 3.5 | 0.00 | 0.00 | 0.00 | 86 | 1013.0 |
| 20260505061745 | 55 | 185 | 0.9 | 3.5 | 0.00 | 0.00 | 0.00 | 86 | 1013.6 |
| 20260505061602 | 55 | 185 | 0.9 | 3.5 | 0.00 | 0.00 | 0.00 | 86 | 1013.0 |
| 20260505061225 | 55 | 178 | 0.9 | 2.6 | 0.00 | 0.00 | 0.00 | 86 | 1013.5 |
| 20260505061024 | 55 | 217 | 0.9 | 2.6 | 0.00 | 0.00 | 0.00 | 86 | 1013.0 |
| 20260505060734 | 56 | 191 | 1.7 | 3.5 | 0.00 | 0.00 | 0.00 | 85 | 1013.5 |
| 20260505060506 | 55 | 196 | 1.7 | 3.5 | 0.00 | 0.00 | 0.00 | 85 | 1012.9 |
| 20260505060215 | 56 | 207 | 1.7 | 3.5 | 0.00 | 0.00 | 0.00 | 85 | 1013.3 |
| 20260505060048 | 55 | 178 | 2.6 | 3.5 | 0.00 | 0.00 | 0.00 | 85 | 1012.8 |
| 20260505055716 | 56 | 192 | 1.7 | 3.5 | 0.00 | 0.00 | 0.00 | 85 | 1013.3 |
| 20260505055530 | 56 | 178 | 0.9 | 3.5 | 0.00 | 0.00 | 0.00 | 85 | 1012.8 |
| 20260505055224 | 56 | 190 | 0.9 | 3.5 | 0.00 | 0.00 | 0.00 | 84 | 1013.3 |
| 20260505055013 | 56 | 172 | 0.9 | 2.6 | 0.00 | 0.00 | 0.00 | 84 | 1012.8 |
| 20260505054725 | 56 | 159 | 1.7 | 2.6 | 0.00 | 0.00 | 0.00 | 84 | 1013.3 |
| 20260505054538 | 56 | 163 | 0.9 | 3.5 | 0.00 | 0.00 | 0.00 | 84 | 1012.7 |
| 20260505054233 | 57 | 145 | 0.9 | 2.6 | 0.00 | 0.00 | 0.00 | 84 | 1013.4 |
| 20260505054012 | 56 | 145 | 0.9 | 2.6 | 0.00 | 0.00 | 0.00 | 84 | 1012.7 |
| 20260505053711 | 57 | 159 | 0.9 | 2.6 | 0.00 | 0.00 | 0.00 | 83 | 1013.3 |
| 20260505053555 | 57 | 159 | 0.9 | 2.6 | 0.00 | 0.00 | 0.00 | 83 | 1012.8 |
| 20260505053213 | 57 | 150 | 0.9 | 2.6 | 0.00 | 0.00 | 0.00 | 83 | 1013.3 |
| 20260505053041 | 57 | 150 | 0.9 | 2.6 | 0.00 | 0.00 | 0.00 | 83 | 1012.7 |
| 20260505052714 | 58 | 190 | 0.9 | 2.6 | 0.00 | 0.00 | 0.00 | 82 | 1013.3 |
| 20260505052517 | 57 | 215 | 0.9 | 2.6 | 0.00 | 0.00 | 0.00 | 82 | 1012.8 |
| 20260505052222 | 58 | 343 | 0.0 | 1.7 | 0.00 | 0.00 | 0.00 | 82 | 1013.3 |
| 20260505052100 | 58 | 342 | 0.0 | 1.7 | 0.00 | 0.00 | 0.00 | 82 | 1012.7 |
| 20260505051724 | 58 | 342 | 0.9 | 1.7 | 0.00 | 0.00 | 0.00 | 81 | 1013.3 |
| 20260505051543 | 58 | 342 | 0.9 | 1.7 | 0.00 | 0.00 | 0.00 | 81 | 1012.7 |
| 20260505051232 | 59 | 327 | 0.9 | 1.7 | 0.00 | 0.00 | 0.00 | 80 | 1013.2 |
| 20260505051002 | 58 | 327 | 0.0 | 1.7 | 0.00 | 0.00 | 0.00 | 80 | 1012.6 |
| 20260505050713 | 59 | 327 | 0.9 | 1.7 | 0.00 | 0.00 | 0.00 | 80 | 1013.1 |
| 20260505050545 | 59 | 327 | 0.0 | 1.7 | 0.00 | 0.00 | 0.00 | 79 | 1012.5 |
| 20260505050214 | 59 | 322 | 0.9 | 1.7 | 0.00 | 0.00 | 0.00 | 79 | 1013.0 |
| 20260505041713 | 63 | 225 | 0.9 | 3.5 | 0.00 | 0.00 | 0.00 | 72 | 1012.8 |
| 20260505041544 | 62 | 225 | 0.9 | 3.5 | 0.00 | 0.00 | 0.00 | 72 | 1012.2 |
| 20260505041243 | 63 | 243 | 1.7 | 5.2 | 0.00 | 0.00 | 0.00 | 71 | 1012.7 |
| 20260505041006 | 63 | 247 | 1.7 | 5.2 | 0.00 | 0.00 | 0.00 | 71 | 1012.0 |
| 20260505040739 | 63 | 234 | 2.6 | 5.2 | 0.00 | 0.00 | 0.00 | 71 | 1012.6 |
| 20260505040528 | 63 | 335 | 1.7 | 4.3 | 0.00 | 0.00 | 0.00 | 71 | 1012.0 |
| 20260505040248 | 64 | 320 | 2.6 | 5.2 | 0.00 | 0.00 | 0.00 | 71 | 1012.5 |
| 20260505040052 | 63 | 292 | 1.7 | 7.0 | 0.00 | 0.00 | 0.00 | 71 | 1011.9 |
| 20260505035728 | 64 | 316 | 1.7 | 9.6 | 0.00 | 0.00 | 0.00 | 71 | 1012.4 |
| 20260505035533 | 63 | 350 | 1.7 | 9.6 | 0.00 | 0.00 | 0.00 | 71 | 1011.8 |
| 20260505035233 | 64 | 311 | 4.3 | 9.6 | 0.00 | 0.00 | 0.00 | 71 | 1012.4 |
| 20260505035011 | 63 | 341 | 2.6 | 7.0 | 0.00 | 0.00 | 0.00 | 71 | 1011.7 |
| 20260505034714 | 64 | 327 | 1.7 | 4.3 | 0.00 | 0.00 | 0.00 | 71 | 1012.4 |
| 20260505034555 | 63 | 329 | 0.9 | 2.6 | 0.00 | 0.00 | 0.00 | 72 | 1011.7 |
| 20260505034236 | 64 | 15 | 0.9 | 2.6 | 0.00 | 0.00 | 0.00 | 71 | 1012.2 |
| 20260505034015 | 64 | 15 | 0.0 | 2.6 | 0.00 | 0.00 | 0.00 | 71 | 1011.5 |
| 20260505033724 | 65 | 15 | 1.7 | 2.6 | 0.00 | 0.00 | 0.00 | 70 | 1012.2 |
| 20260505033559 | 64 | 12 | 0.0 | 1.7 | 0.00 | 0.00 | 0.00 | 69 | 1011.5 |
| 20260505033231 | 65 | 315 | 0.0 | 2.6 | 0.00 | 0.00 | 0.00 | 69 | 1012.1 |
| 20260505033019 | 65 | 315 | 0.0 | 3.5 | 0.00 | 0.00 | 0.00 | 69 | 1011.4 |
| 20260505032713 | 66 | 315 | 0.9 | 3.5 | 0.00 | 0.00 | 0.00 | 68 | 1012.1 |
| 20260505032605 | 65 | 315 | 0.9 | 3.5 | 0.00 | 0.00 | 0.00 | 68 | 1011.4 |
| 20260505032214 | 66 | 323 | 1.7 | 4.3 | 0.00 | 0.00 | 0.00 | 67 | 1012.0 |
| 20260505032043 | 66 | 338 | 1.7 | 7.0 | 0.00 | 0.00 | 0.00 | 67 | 1011.3 |
| 20260505031715 | 66 | 331 | 2.6 | 7.0 | 0.00 | 0.00 | 0.00 | 67 | 1011.9 |
| 20260505031536 | 66 | 334 | 1.7 | 7.0 | 0.00 | 0.00 | 0.00 | 66 | 1011.2 |
| 20260505031224 | 67 | 277 | 3.5 | 7.0 | 0.00 | 0.00 | 0.00 | 66 | 1012.0 |
| 20260505031011 | 67 | 315 | 0.9 | 5.2 | 0.00 | 0.00 | 0.00 | 65 | 1011.3 |
| 20260505030725 | 67 | 280 | 2.6 | 6.1 | 0.00 | 0.00 | 0.00 | 65 | 1012.0 |
| 20260505030554 | 67 | 314 | 1.7 | 6.1 | 0.00 | 0.00 | 0.00 | 65 | 1011.2 |
| 20260505030254 | 68 | 332 | 2.6 | 7.0 | 0.00 | 0.00 | 0.00 | 65 | 1011.9 |
| 20260505030011 | 67 | 284 | 1.7 | 7.0 | 0.00 | 0.00 | 0.00 | 65 | 1011.2 |
| 20260505025715 | 68 | 285 | 3.5 | 7.0 | 0.00 | 0.00 | 0.00 | 65 | 1011.8 |
| 20260505025555 | 68 | 262 | 2.6 | 7.0 | 0.00 | 0.00 | 0.00 | 65 | 1011.1 |
| 20260505025216 | 69 | 273 | 1.7 | 6.1 | 0.00 | 0.00 | 0.00 | 65 | 1011.7 |
| 20260505025036 | 68 | 320 | 0.9 | 6.1 | 0.00 | 0.00 | 0.00 | 66 | 1011.0 |
| 20260505024718 | 69 | 270 | 2.6 | 7.8 | 0.00 | 0.00 | 0.00 | 65 | 1011.6 |
| 20260505024517 | 69 | 257 | 1.7 | 7.8 | 0.00 | 0.00 | 0.00 | 65 | 1010.9 |
| 20260505024246 | 70 | 305 | 2.6 | 7.8 | 0.00 | 0.00 | 0.00 | 65 | 1011.6 |
| 20260505024040 | 69 | 312 | 2.6 | 7.8 | 0.00 | 0.00 | 0.00 | 65 | 1010.8 |
| 20260505023734 | 70 | 268 | 1.7 | 6.1 | 0.00 | 0.00 | 0.00 | 66 | 1011.5 |
| 20260505023521 | 70 | 305 | 1.7 | 4.3 | 0.00 | 0.00 | 0.00 | 65 | 1010.8 |
| 20260505023235 | 71 | 279 | 1.7 | 5.2 | 0.00 | 0.00 | 0.00 | 65 | 1011.4 |
| 20260505023050 | 70 | 15 | 1.7 | 5.2 | 0.00 | 0.00 | 0.00 | 65 | 1010.7 |
| 20260505022741 | 71 | 15 | 1.7 | 5.2 | 0.00 | 0.00 | 0.00 | 65 | 1011.5 |
| 20260505022503 | 71 | 15 | 2.6 | 5.2 | 0.00 | 0.00 | 0.00 | 64 | 1010.7 |
| 20260505022222 | 72 | 15 | 1.7 | 5.2 | 0.00 | 0.00 | 0.00 | 63 | 1011.5 |
| 20260505022049 | 71 | 14 | 1.7 | 5.2 | 0.00 | 0.00 | 0.00 | 63 | 1010.8 |
| 20260505021723 | 72 | 14 | 1.7 | 7.0 | 0.00 | 0.00 | 0.00 | 63 | 1011.6 |
| 20260505021533 | 71 | 15 | 1.7 | 7.0 | 0.00 | 0.00 | 0.00 | 63 | 1010.8 |
| 20260505021232 | 72 | 13 | 1.7 | 7.8 | 0.00 | 0.00 | 0.00 | 63 | 1011.5 |
| 20260505021012 | 71 | 15 | 2.6 | 7.8 | 0.00 | 0.00 | 0.00 | 62 | 1010.8 |
| 20260505020713 | 72 | 15 | 1.7 | 7.8 | 0.00 | 0.00 | 0.00 | 63 | 1011.5 |
| 20260505020553 | 72 | 15 | 2.6 | 7.8 | 0.00 | 0.00 | 0.00 | 64 | 1010.8 |
| 20260505020214 | 72 | 15 | 1.7 | 5.2 | 0.00 | 0.00 | 0.00 | 64 | 1011.5 |
| 20260505020038 | 72 | 15 | 1.7 | 7.0 | 0.00 | 0.00 | 0.00 | 64 | 1010.8 |
| 20260505015716 | 72 | 14 | 2.6 | 7.0 | 0.00 | 0.00 | 0.00 | 64 | 1011.6 |
| 20260505015516 | 72 | 14 | 2.6 | 7.0 | 0.00 | 0.00 | 0.00 | 64 | 1010.9 |
| 20260505015224 | 72 | 259 | 4.3 | 7.0 | 0.00 | 0.00 | 0.00 | 64 | 1011.6 |
| 20260505015059 | 72 | 232 | 3.5 | 6.1 | 0.00 | 0.00 | 0.00 | 64 | 1010.8 |
| 20260505014726 | 73 | 202 | 3.5 | 6.1 | 0.00 | 0.00 | 0.00 | 64 | 1011.5 |
| 20260505014542 | 73 | 271 | 1.7 | 7.0 | 0.00 | 0.00 | 0.00 | 63 | 1010.8 |
| 20260505014234 | 73 | 13 | 1.7 | 7.0 | 0.00 | 0.00 | 0.00 | 62 | 1011.5 |
| 20260505014023 | 73 | 14 | 0.9 | 7.0 | 0.00 | 0.00 | 0.00 | 63 | 1010.8 |
| 20260505013716 | 73 | 15 | 2.6 | 7.0 | 0.00 | 0.00 | 0.00 | 64 | 1011.7 |
| 20260505013503 | 72 | 253 | 1.7 | 6.1 | 0.00 | 0.00 | 0.00 | 63 | 1010.9 |
| 20260505013217 | 73 | 234 | 3.5 | 6.1 | 0.00 | 0.00 | 0.00 | 64 | 1011.6 |
| 20260505013047 | 72 | 219 | 3.5 | 7.0 | 0.00 | 0.00 | 0.00 | 62 | 1010.8 |
| 20260505012719 | 73 | 14 | 2.6 | 6.1 | 0.00 | 0.00 | 0.00 | 63 | 1011.6 |
| 20260505012529 | 72 | 239 | 2.6 | 6.1 | 0.00 | 0.00 | 0.00 | 63 | 1010.9 |
| 20260505012228 | 73 | 14 | 1.7 | 7.0 | 0.00 | 0.00 | 0.00 | 63 | 1011.7 |
| 20260505012010 | 72 | 14 | 1.7 | 7.0 | 0.00 | 0.00 | 0.00 | 62 | 1010.9 |
| 20260505011729 | 73 | 14 | 4.3 | 7.8 | 0.00 | 0.00 | 0.00 | 63 | 1011.7 |
| 20260505011554 | 72 | 217 | 4.3 | 7.8 | 0.00 | 0.00 | 0.00 | 66 | 1010.9 |
| 20260505011257 | 73 | 13 | 5.2 | 8.7 | 0.00 | 0.00 | 0.00 | 64 | 1011.7 |
| 20260505011014 | 72 | 252 | 2.6 | 8.7 | 0.00 | 0.00 | 0.00 | 64 | 1010.9 |
| 20260505010738 | 73 | 13 | 2.6 | 8.7 | 0.00 | 0.00 | 0.00 | 65 | 1011.7 |
| 20260505010539 | 72 | 11 | 4.3 | 8.7 | 0.00 | 0.00 | 0.00 | 64 | 1011.0 |
| 20260505010216 | 73 | 12 | 3.5 | 7.8 | 0.00 | 0.00 | 0.00 | 65 | 1011.7 |
| 20260505010026 | 72 | 15 | 3.5 | 7.8 | 0.00 | 0.00 | 0.00 | 62 | 1011.0 |
| 20260505005724 | 73 | 253 | 4.3 | 7.8 | 0.00 | 0.00 | 0.00 | 63 | 1011.8 |
| 20260505005559 | 72 | 12 | 4.3 | 7.8 | 0.00 | 0.00 | 0.00 | 64 | 1011.1 |
| 20260505005231 | 73 | 210 | 4.3 | 7.0 | 0.00 | 0.00 | 0.00 | 65 | 1011.7 |
| 20260505005019 | 72 | 232 | 2.6 | 7.0 | 0.00 | 0.00 | 0.00 | 64 | 1011.0 |
| 20260505004711 | 73 | 220 | 2.6 | 7.0 | 0.00 | 0.00 | 0.00 | 66 | 1011.8 |
| 20260505004600 | 72 | 240 | 2.6 | 7.0 | 0.00 | 0.00 | 0.00 | 65 | 1011.0 |
| 20260505004212 | 72 | 205 | 4.3 | 7.8 | 0.00 | 0.00 | 0.00 | 65 | 1011.8 |
| 20260505004042 | 72 | 13 | 2.6 | 7.8 | 0.00 | 0.00 | 0.00 | 67 | 1011.1 |
| 20260505003720 | 72 | 234 | 4.3 | 9.6 | 0.00 | 0.00 | 0.00 | 65 | 1011.8 |
| 20260505003502 | 72 | 13 | 3.5 | 9.6 | 0.00 | 0.00 | 0.00 | 66 | 1011.1 |
| 20260505003221 | 72 | 223 | 3.5 | 9.6 | 0.00 | 0.00 | 0.00 | 65 | 1011.8 |
| 20260505003048 | 72 | 13 | 3.5 | 9.6 | 0.00 | 0.00 | 0.00 | 64 | 1011.1 |
| 20260505002723 | 72 | 13 | 3.5 | 8.7 | 0.00 | 0.00 | 0.00 | 66 | 1012.0 |
| 20260505002528 | 72 | 12 | 3.5 | 10.4 | 0.00 | 0.00 | 0.00 | 67 | 1011.2 |
| 20260505002231 | 72 | 11 | 5.2 | 10.4 | 0.00 | 0.00 | 0.00 | 66 | 1012.0 |
| 20260505002009 | 71 | 174 | 5.2 | 10.4 | 0.00 | 0.00 | 0.00 | 65 | 1011.3 |
| 20260505001713 | 72 | 12 | 5.2 | 10.4 | 0.00 | 0.00 | 0.00 | 68 | 1012.0 |
| 20260505001553 | 71 | 13 | 5.2 | 7.8 | 0.00 | 0.00 | 0.00 | 65 | 1011.2 |
| 20260505001215 | 72 | 188 | 5.2 | 10.4 | 0.00 | 0.00 | 0.00 | 65 | 1012.1 |
| 20260505001034 | 72 | 201 | 4.3 | 10.4 | 0.00 | 0.00 | 0.00 | 64 | 1011.3 |
| 20260505000743 | 72 | 14 | 5.2 | 10.4 | 0.00 | 0.00 | 0.00 | 66 | 1012.1 |
| 20260505000556 | 72 | 232 | 6.1 | 10.4 | 0.00 | 0.00 | 0.00 | 65 | 1011.3 |
| 20260505000251 | 72 | 228 | 4.3 | 7.8 | 0.00 | 0.00 | 0.00 | 68 | 1012.1 |
| 20260505000032 | 71 | 226 | 3.5 | 7.8 | 0.00 | 0.00 | 0.00 | 67 | 1011.3 |
| 20260504235711 | 72 | 208 | 5.2 | 7.8 | 0.00 | 0.00 | 0.00 | 65 | 1012.1 |
| 20260504235601 | 71 | 11 | 5.2 | 7.8 | 0.00 | 0.00 | 0.00 | 65 | 1011.4 |
| 20260504235212 | 72 | 191 | 3.5 | 8.7 | 0.00 | 0.00 | 0.00 | 68 | 1012.2 |
| 20260504235045 | 71 | 200 | 2.6 | 8.7 | 0.00 | 0.00 | 0.00 | 67 | 1011.4 |
| 20260504234713 | 72 | 223 | 4.3 | 8.7 | 0.00 | 0.00 | 0.00 | 66 | 1012.3 |
| 20260504234524 | 71 | 158 | 4.3 | 8.7 | 0.00 | 0.00 | 0.00 | 67 | 1011.4 |
| 20260504234222 | 72 | 209 | 4.3 | 8.7 | 0.00 | 0.00 | 0.00 | 68 | 1012.2 |
| 20260504234004 | 71 | 144 | 4.3 | 8.7 | 0.00 | 0.00 | 0.00 | 66 | 1011.4 |
| 20260504233743 | 72 | 220 | 5.2 | 7.8 | 0.00 | 0.00 | 0.00 | 66 | 1012.1 |
| 20260504233527 | 71 | 242 | 3.5 | 7.8 | 0.00 | 0.00 | 0.00 | 66 | 1011.4 |
| 20260504233231 | 72 | 227 | 3.5 | 7.8 | 0.00 | 0.00 | 0.00 | 67 | 1012.2 |
| 20260504233052 | 71 | 227 | 4.3 | 7.8 | 0.00 | 0.00 | 0.00 | 68 | 1011.3 |
| 20260504232711 | 71 | 188 | 3.5 | 9.6 | 0.00 | 0.00 | 0.00 | 67 | 1012.2 |
| 20260504232531 | 71 | 209 | 4.3 | 9.6 | 0.00 | 0.00 | 0.00 | 66 | 1011.4 |
| 20260504232213 | 71 | 200 | 2.6 | 9.6 | 0.00 | 0.00 | 0.00 | 67 | 1012.3 |
| 20260504232012 | 71 | 219 | 5.2 | 9.6 | 0.00 | 0.00 | 0.00 | 66 | 1011.4 |
| 20260504231741 | 71 | 360 | 4.3 | 8.7 | 0.00 | 0.00 | 0.00 | 68 | 1012.2 |
| 20260504231542 | 71 | 11 | 2.6 | 7.8 | 0.00 | 0.00 | 0.00 | 66 | 1011.5 |
| 20260504231229 | 71 | 190 | 4.3 | 7.8 | 0.00 | 0.00 | 0.00 | 68 | 1012.4 |
| 20260504231015 | 70 | 202 | 4.3 | 7.0 | 0.00 | 0.00 | 0.00 | 66 | 1011.4 |
| 20260504230729 | 71 | 202 | 4.3 | 7.0 | 0.00 | 0.00 | 0.00 | 67 | 1012.3 |
| 20260504230559 | 70 | 213 | 4.3 | 7.8 | 0.00 | 0.00 | 0.00 | 69 | 1011.5 |
| 20260504230231 | 70 | 215 | 5.2 | 7.8 | 0.00 | 0.00 | 0.00 | 68 | 1012.4 |
| 20260504230034 | 70 | 237 | 2.6 | 7.8 | 0.00 | 0.00 | 0.00 | 67 | 1011.5 |
| 20260504225718 | 70 | 214 | 4.3 | 7.8 | 0.00 | 0.00 | 0.00 | 67 | 1012.4 |
| 20260504225502 | 70 | 132 | 1.7 | 7.0 | 0.00 | 0.00 | 0.00 | 65 | 1011.5 |
| 20260504225219 | 71 | 193 | 5.2 | 7.0 | 0.00 | 0.00 | 0.00 | 68 | 1012.5 |
| 20260504225044 | 70 | 221 | 4.3 | 7.0 | 0.00 | 0.00 | 0.00 | 65 | 1011.6 |
| 20260504224726 | 70 | 209 | 2.6 | 7.0 | 0.00 | 0.00 | 0.00 | 68 | 1012.6 |